GW2790 Weather Reports


time (UTC)temp
C
wind
direction
speed
KPH
gust
KPH
rain 1hr
cm
rain 24hr
cm
rain mn
cm
humidity
%
barometer
mb
20260505152516 17 0.0 0.0 0.00 0.00 0.00 44 1013.3
20260505151516 16 250 0.0 1.6 0.00 0.00 0.00 44 1013.2
20260505150519 15 0.0 0.0 0.00 0.00 0.00 44 1013.2
20260505140518 10 0.0 0.0 0.00 0.00 0.00 44 1012.7
20260505124515 6 0.0 0.0 0.00 0.00 0.00 44 1011.9
20260505123516 6 0.0 0.0 0.00 0.00 0.00 45 1011.8
20260505122537 6 0.0 0.0 0.00 0.00 0.00 44 1011.6
20260505121517 6 0.0 0.0 0.00 0.00 0.00 44 1011.5
20260505120519 6 0.0 0.0 0.00 0.00 0.00 44 1011.4
20260505115515 6 0.0 0.0 0.00 0.00 0.00 45 1011.4
20260505114515 6 0.0 0.0 0.00 0.00 0.00 45 1011.3
20260505113517 7 39 0.0 1.6 0.00 0.00 0.00 45 1011.3
20260505112515 7 0.0 0.0 0.00 0.00 0.00 45 1011.1
20260505111525 7 0.0 0.0 0.00 0.00 0.00 45 1011.0
20260505110517 7 216 1.6 1.6 0.00 0.00 0.00 46 1011.0
20260505101535 7 0.0 0.0 0.00 0.00 0.00 47 1010.4
20260505100516 7 0.0 0.0 0.00 0.00 0.00 45 1010.2
20260505095515 7 0.0 0.0 0.00 0.00 0.00 45 1010.2
20260505094515 7 0.0 0.0 0.00 0.00 0.00 45 1010.1
20260505093515 8 0.0 0.0 0.00 0.00 0.00 45 1010.0
20260505092518 8 0.0 0.0 0.00 0.00 0.00 45 1010.0
20260505091517 8 0.0 0.0 0.00 0.00 0.00 46 1010.0
20260505090517 8 0.0 0.0 0.00 0.00 0.00 46 1009.9
20260505085535 8 0.0 0.0 0.00 0.00 0.00 46 1009.8
20260505084517 8 0.0 0.0 0.00 0.00 0.00 46 1009.7
20260505083516 9 0.0 0.0 0.00 0.00 0.00 46 1009.7
20260505082536 9 0.0 0.0 0.00 0.00 0.00 46 1009.7
20260505081535 10 0.0 0.0 0.00 0.00 0.00 46 1009.6
20260505080515 10 0.0 0.0 0.00 0.00 0.00 46 1009.6
20260505075516 10 0.0 0.0 0.00 0.00 0.00 47 1009.5
20260505074517 10 0.0 0.0 0.00 0.00 0.00 47 1009.5
20260505073536 11 240 0.0 0.0 0.00 0.00 0.00 47 1009.3
20260505072518 11 0.0 0.0 0.00 0.00 0.00 47 1009.3
20260505071537 11 306 0.0 3.2 0.00 0.00 0.00 47 1009.2
20260505070517 11 119 0.0 0.0 0.00 0.00 0.00 47 1009.1
20260505065515 12 243 0.0 3.2 0.00 0.00 0.00 47 1009.0
20260505064515 11 193 0.0 1.6 0.00 0.00 0.00 48 1008.8
20260505063515 12 0.0 0.0 0.00 0.00 0.00 48 1008.8
20260505062535 12 0.0 0.0 0.00 0.00 0.00 48 1008.7
20260505061515 12 109 0.0 1.6 0.00 0.00 0.00 48 1008.7
20260505060517 13 0.0 0.0 0.00 0.00 0.00 48 1008.6
20260505055537 13 0.0 0.0 0.00 0.00 0.00 48 1008.5
20260505054539 13 0.0 0.0 0.00 0.00 0.00 49 1008.5
20260505053516 15 0.0 0.0 0.00 0.00 0.00 49 1008.4
20260505052538 14 0.0 0.0 0.00 0.00 0.00 49 1008.3
20260505051515 15 0.0 0.0 0.00 0.00 0.00 49 1008.2
20260505050517 15 0.0 0.0 0.00 0.00 0.00 49 1008.1
20260505041537 17 109 0.0 0.0 0.00 0.00 0.00 50 1007.7
20260505040516 17 333 0.0 1.6 0.00 0.00 0.00 50 1007.6
20260505035517 17 0.0 0.0 0.00 0.00 0.00 51 1007.5
20260505034516 18 313 0.0 1.6 0.00 0.00 0.00 51 1007.3
20260505033523 18 0.0 0.0 0.00 0.00 0.00 51 1007.1
20260505032515 20 0.0 0.0 0.00 0.00 0.00 51 1007.0
20260505031515 21 0.0 0.0 0.00 0.00 0.00 51 1006.9
20260505030517 21 0.0 0.0 0.00 0.00 0.00 52 1006.7
20260505025518 22 0.0 0.0 0.00 0.00 0.00 52 1006.6
20260505024535 23 0.0 0.0 0.00 0.00 0.00 53 1006.5
20260505023517 25 0.0 0.0 0.00 0.00 0.00 54 1006.4
20260505022535 25 0.0 0.0 0.00 0.00 0.00 55 1006.4
20260505021515 26 0.0 0.0 0.00 0.00 0.00 56 1006.4
20260505020516 28 0.0 0.0 0.00 0.00 0.00 56 1006.4
20260505015520 28 0.0 0.0 0.00 0.00 0.00 56 1006.4
20260505014515 29 0.0 0.0 0.00 0.00 0.00 56 1006.5
20260505013517 29 0.0 0.0 0.00 0.00 0.00 56 1006.6
20260505012516 30 149 1.6 4.8 0.00 0.00 0.00 57 1006.6
20260505011517 30 141 1.6 4.8 0.00 0.00 0.00 56 1006.6
20260505010516 30 121 1.6 8.0 0.00 0.00 0.00 52 1006.7
20260505005517 31 123 4.8 11.3 0.00 0.00 0.00 50 1006.7
20260505004537 31 105 3.2 8.0 0.00 0.00 0.00 54 1006.8
20260505003517 31 111 6.4 14.5 0.00 0.00 0.00 55 1006.9
20260505002515 31 105 3.2 8.0 0.00 0.00 0.00 55 1007.0
20260505001515 31 30 1.6 8.0 0.00 0.00 0.00 55 1007.0
20260505000517 31 86 1.6 6.4 0.00 0.00 0.00 55 1007.0
20260504235515 32 244 0.0 4.8 0.00 0.00 0.00 55 1007.0
20260504234517 32 284 0.0 3.2 0.00 0.00 0.00 55 1007.1
20260504233516 31 307 1.6 8.0 0.00 0.00 0.00 55 1007.1
20260504232516 31 297 1.6 8.0 0.00 0.00 0.00 55 1007.1
20260504231536 32 265 0.0 3.2 0.00 0.00 0.00 55 1007.2
20260504230516 31 50 1.6 8.0 0.00 0.00 0.00 55 1007.3
20260504225535 31 331 3.2 8.0 0.00 0.00 0.00 55 1007.3
20260504224515 32 289 3.2 8.0 0.00 0.00 0.00 55 1007.5
20260504223536 33 193 0.0 1.6 0.00 0.00 0.00 55 1007.5
20260504222517 32 190 0.0 4.8 0.00 0.00 0.00 55 1007.6
20260504221515 31 306 4.8 12.9 0.00 0.00 0.00 54 1007.8
20260504220519 32 345 1.6 6.4 0.00 0.00 0.00 54 1007.9
20260504215517 31 348 1.6 6.4 0.00 0.00 0.00 54 1008.0
20260504214516 31 294 4.8 14.5 0.00 0.00 0.00 54 1008.1
20260504213517 31 310 6.4 12.9 0.00 0.00 0.00 54 1008.2
20260504212516 32 21 1.6 11.3 0.00 0.00 0.00 54 1008.3
20260504211516 31 311 4.8 9.7 0.00 0.00 0.00 54 1008.4
20260504210517 31 276 3.2 9.7 0.00 0.00 0.00 55 1008.4
20260504205517 31 341 3.2 11.3 0.00 0.00 0.00 50 1008.5
20260504204516 31 9 1.6 6.4 0.00 0.00 0.00 50 1008.6
20260504203517 30 347 3.2 11.3 0.00 0.00 0.00 52 1008.7
20260504202515 30 322 6.4 11.3 0.00 0.00 0.00 54 1008.7
20260504201515 31 34 1.6 11.3 0.00 0.00 0.00 50 1008.8
20260504200518 31 338 3.2 11.3 0.00 0.00 0.00 49 1008.9
20260504195515 32 247 1.6 6.4 0.00 0.00 0.00 49 1009.0
20260504194517 30 317 6.4 12.9 0.00 0.00 0.00 50 1009.0
20260504193516 30 337 6.4 12.9 0.00 0.00 0.00 53 1009.1
20260504192517 31 318 4.8 12.9 0.00 0.00 0.00 48 1009.1
20260504191517 31 202 1.6 8.0 0.00 0.00 0.00 47 1009.2
20260504190517 29 300 4.8 12.9 0.00 0.00 0.00 47 1009.2
20260504185517 31 300 0.0 3.2 0.00 0.00 0.00 46 1009.2
20260504184515 30 221 1.6 8.0 0.00 0.00 0.00 46 1009.3
20260504183517 28 197 0.0 3.2 0.00 0.00 0.00 46 1009.4
20260504182521 27 33 0.0 1.6 0.00 0.00 0.00 46 1009.4
20260504181536 27 351 1.6 6.4 0.00 0.00 0.00 45 1009.4
20260504180515 26 303 0.0 4.8 0.00 0.00 0.00 45 1009.5
20260504175517 26 298 3.2 8.0 0.00 0.00 0.00 45 1009.6
20260504174535 25 313 1.6 6.4 0.00 0.00 0.00 44 1009.6
20260504173537 25 323 3.2 6.4 0.00 0.00 0.00 44 1009.6
20260504172517 23 303 1.6 6.4 0.00 0.00 0.00 44 1009.8
20260504171517 23 303 3.2 6.4 0.00 0.00 0.00 43 1009.9
20260504170517 22 332 4.8 9.7 0.00 0.00 0.00 43 1009.9